When you browse on this site, cookies collect data to enhance your experience and personalize the content and advertising you see.
Visit our Privacy Policy to learn more. By continuing to use the site, you agree to this use of cookies and data.
  • In Hungary
  • List of Countries
  • For 7 days
  • Water Temperature
  • Satellite Maps
  • Weather Map
  • News
  • Weather Widgets
  • user-avatar
    Login

    Hourly Weather Soverato

    Today, 18 June, Tuesday

    Time Temperature Precipitation Wind Pressure Humidity
    00:00 +23°C° 0 mm 2 mps 759 mmHg 66%
    01:00 +23°C° 0 mm 2 mps 759 mmHg 59%
    02:00 +23°C° 0 mm 2 mps 759 mmHg 59%
    03:00 +23°C° 0 mm 2 mps 758 mmHg 59%
    04:00 +23°C° 0 mm 2 mps 758 mmHg 60%
    05:00 +25°C° 0 mm 2 mps 759 mmHg 57%
    06:00 +26°C° 0 mm 1 mps 759 mmHg 55%
    07:00 +28°C° 0 mm 1 mps 759 mmHg 53%
    08:00 +29°C° 0 mm 2 mps 760 mmHg 50%
    09:00 +31°C° 0 mm 2 mps 760 mmHg 47%
    10:00 +32°C° 0 mm 2 mps 760 mmHg 45%
    11:00 +32°C° 0 mm 2 mps 760 mmHg 46%
    12:00 +32°C° 0 mm 2 mps 760 mmHg 48%
    13:00 +32°C° 0 mm 2 mps 759 mmHg 50%
    14:00 +32°C° 0 mm 2 mps 759 mmHg 49%
    15:00 +32°C° 0 mm 2 mps 759 mmHg 49%
    16:00 +32°C° 0 mm 2 mps 759 mmHg 49%
    17:00 +30°C° 0 mm 2 mps 759 mmHg 57%
    18:00 +28°C° 0 mm 2 mps 759 mmHg 66%
    19:00 +26°C° 0 mm 1 mps 759 mmHg 74%
    20:00 +25°C° 0 mm 2 mps 759 mmHg 74%
    21:00 +24°C° 0 mm 2 mps 759 mmHg 73%
    22:00 +24°C° 0 mm 3 mps 760 mmHg 73%
    23:00 +22°C° 0 mm 3 mps 760 mmHg 71%

    Tomorrow, 19 June, Wednesday

    Time Temperature Precipitation Wind Pressure Humidity
    00:00 +22°C° 0 mm 3 mps 759 mmHg 70%
    01:00 +22°C° 0 mm 3 mps 759 mmHg 68%
    02:00 +22°C° 0 mm 3 mps 759 mmHg 68%
    03:00 +23°C° 0 mm 2 mps 759 mmHg 68%
    04:00 +23°C° 0 mm 2 mps 758 mmHg 67%
    05:00 +24°C° 0 mm 2 mps 759 mmHg 64%
    06:00 +26°C° 0 mm 2 mps 759 mmHg 60%
    07:00 +28°C° 0 mm 2 mps 759 mmHg 57%
    08:00 +29°C° 0 mm 2 mps 759 mmHg 53%
    09:00 +31°C° 0 mm 2 mps 759 mmHg 48%
    10:00 +32°C° 0 mm 2 mps 759 mmHg 44%
    11:00 +32°C° 0 mm 2 mps 759 mmHg 45%
    12:00 +32°C° 0 mm 2 mps 759 mmHg 45%
    13:00 +34°C° 0 mm 2 mps 759 mmHg 46%
    14:00 +32°C° 0 mm 2 mps 759 mmHg 47%
    15:00 +31°C° 0 mm 2 mps 758 mmHg 48%
    16:00 +31°C° 0 mm 2 mps 758 mmHg 49%
    17:00 +29°C° 0 mm 2 mps 758 mmHg 58%
    18:00 +27°C° 0 mm 2 mps 758 mmHg 66%
    19:00 +25°C° 0 mm 2 mps 759 mmHg 74%
    20:00 +24°C° 0 mm 3 mps 759 mmHg 75%
    21:00 +22°C° 0 mm 3 mps 759 mmHg 76%
    22:00 +21°C° 0 mm 4 mps 759 mmHg 78%
    23:00 +21°C° 0 mm 4 mps 759 mmHg 76%

    Day after tomorrow, 20 June, Thursday

    Time Temperature Precipitation Wind Pressure Humidity
    00:00 +21°C° 0 mm 4 mps 759 mmHg 75%
    01:00 +21°C° 0 mm 4 mps 759 mmHg 74%
    02:00 +21°C° 0 mm 4 mps 759 mmHg 74%
    03:00 +21°C° 0 mm 3 mps 758 mmHg 74%
    04:00 +21°C° 0 mm 3 mps 758 mmHg 74%
    05:00 +24°C° 0 mm 3 mps 759 mmHg 70%
    06:00 +26°C° 0 mm 3 mps 759 mmHg 66%
    07:00 +27°C° 0 mm 2 mps 759 mmHg 61%
    08:00 +29°C° 0 mm 2 mps 759 mmHg 56%
    09:00 +31°C° 0 mm 2 mps 759 mmHg 51%
    10:00 +32°C° 0 mm 2 mps 760 mmHg 46%
    11:00 +34°C° 0 mm 3 mps 759 mmHg 46%
    12:00 +34°C° 0 mm 3 mps 759 mmHg 45%
    13:00 +35°C° 0 mm 3 mps 759 mmHg 44%
    14:00 +34°C° 0 mm 3 mps 759 mmHg 45%
    15:00 +33°C° 0 mm 3 mps 759 mmHg 46%
    16:00 +33°C° 0 mm 3 mps 759 mmHg 47%
    17:00 +30°C° 0 mm 3 mps 759 mmHg 55%
    18:00 +28°C° 0 mm 3 mps 759 mmHg 62%
    19:00 +26°C° 0 mm 3 mps 759 mmHg 70%
    20:00 +25°C° 0 mm 3 mps 759 mmHg 69%
    21:00 +24°C° 0 mm 3 mps 759 mmHg 69%
    22:00 +24°C° 0 mm 3 mps 759 mmHg 68%
    23:00 +24°C° 0 mm 3 mps 759 mmHg 66%

    21 June, Friday

    Time Temperature Precipitation Wind Pressure Humidity
    00:00 +24°C° 0 mm 3 mps 759 mmHg 65%
    01:00 +24°C° 0 mm 3 mps 759 mmHg 64%
    02:00 +24°C° 0 mm 3 mps 759 mmHg 59%
    03:00 +24°C° 0 mm 3 mps 759 mmHg 55%
    04:00 +24°C° 0 mm 2 mps 759 mmHg 50%
    05:00 +26°C° 0 mm 2 mps 759 mmHg 48%
    06:00 +28°C° 0 mm 2 mps 759 mmHg 47%
    07:00 +30°C° 0 mm 1 mps 759 mmHg 45%
    08:00 +31°C° 0 mm 1 mps 760 mmHg 40%
    09:00 +33°C° 0 mm 1 mps 760 mmHg 36%
    10:00 +35°C° 0 mm 1 mps 760 mmHg 31%
    11:00 +36°C° 0 mm 2 mps 760 mmHg 30%
    12:00 +37°C° 0 mm 2 mps 760 mmHg 28%
    13:00 +37°C° 0 mm 2 mps 760 mmHg 26%
    14:00 +37°C° 0 mm 2 mps 759 mmHg 27%
    15:00 +36°C° 0 mm 2 mps 759 mmHg 29%
    16:00 +36°C° 0 mm 2 mps 759 mmHg 30%
    17:00 +32°C° 0 mm 2 mps 759 mmHg 38%
    18:00 +30°C° 0 mm 2 mps 759 mmHg 46%
    19:00 +27°C° 0 mm 2 mps 759 mmHg 53%
    20:00 +27°C° 0 mm 2 mps 759 mmHg 46%
    21:00 +27°C° 0 mm 2 mps 759 mmHg 39%
    22:00 +27°C° 0 mm 2 mps 759 mmHg 31%
    23:00 +27°C° 0 mm 2 mps 759 mmHg 30%

    22 June, Saturday

    Time Temperature Precipitation Wind Pressure Humidity
    00:00 +27°C° 0 mm 2 mps 759 mmHg 30%
    01:00 +27°C° 0 mm 1 mps 759 mmHg 29%
    02:00 +27°C° 0 mm 2 mps 759 mmHg 29%
    03:00 +27°C° 0 mm 2 mps 759 mmHg 29%
    04:00 +27°C° 0 mm 2 mps 759 mmHg 29%
    05:00 +29°C° 0 mm 1 mps 759 mmHg 29%
    06:00 +31°C° 0 mm 1 mps 759 mmHg 30%
    07:00 +33°C° 0 mm 1 mps 759 mmHg 31%
    08:00 +34°C° 0 mm 1 mps 759 mmHg 29%
    09:00 +37°C° 0 mm 2 mps 760 mmHg 27%
    10:00 +38°C° 0 mm 2 mps 760 mmHg 25%
    11:00 +39°C° 0 mm 2 mps 760 mmHg 24%
    12:00 +39°C° 0 mm 2 mps 760 mmHg 23%
    13:00 +39°C° 0 mm 2 mps 760 mmHg 22%
    14:00 +39°C° 0 mm 2 mps 760 mmHg 23%
    15:00 +38°C° 0 mm 2 mps 759 mmHg 24%
    16:00 +38°C° 0 mm 2 mps 759 mmHg 25%
    17:00 +36°C° 0 mm 2 mps 759 mmHg 31%
    18:00 +34°C° 0 mm 2 mps 759 mmHg 37%
    19:00 +31°C° 0 mm 2 mps 759 mmHg 43%
    20:00 +30°C° 0 mm 2 mps 760 mmHg 40%
    21:00 +30°C° 0 mm 2 mps 760 mmHg 38%
    22:00 +30°C° 0 mm 2 mps 760 mmHg 36%
    23:00 +30°C° 0 mm 2 mps 760 mmHg 35%

    23 June, Sunday

    Time Temperature Precipitation Wind Pressure Humidity
    00:00 +29°C° 0 mm 2 mps 760 mmHg 35%
    01:00 +29°C° 0 mm 2 mps 760 mmHg 34%
    02:00 +29°C° 0 mm 3 mps 760 mmHg 35%
    03:00 +29°C° 0 mm 3 mps 759 mmHg 36%
    04:00 +29°C° 0 mm 4 mps 759 mmHg 36%
    05:00 +30°C° 0 mm 3 mps 760 mmHg 36%
    06:00 +33°C° 0 mm 3 mps 760 mmHg 35%
    07:00 +34°C° 0 mm 3 mps 760 mmHg 35%
    08:00 +36°C° 0 mm 3 mps 760 mmHg 31%
    09:00 +38°C° 0 mm 3 mps 761 mmHg 27%
    10:00 +40°C° 0 mm 3 mps 761 mmHg 24%
    11:00 +40°C° 0 mm 3 mps 761 mmHg 23%
    12:00 +42°C° 0 mm 4 mps 761 mmHg 22%
    13:00 +42°C° 0 mm 4 mps 761 mmHg 21%
    14:00 +42°C° 0 mm 4 mps 761 mmHg 21%
    15:00 +40°C° 0 mm 3 mps 761 mmHg 22%
    16:00 +40°C° 0 mm 3 mps 761 mmHg 22%
    17:00 +37°C° 0 mm 3 mps 761 mmHg 27%
    18:00 +35°C° 0 mm 2 mps 761 mmHg 32%
    19:00 +32°C° 0 mm 2 mps 761 mmHg 37%
    20:00 +31°C° 0 mm 2 mps 761 mmHg 35%
    21:00 +31°C° 0 mm 2 mps 761 mmHg 33%
    22:00 +30°C° 0 mm 2 mps 761 mmHg 31%
    23:00 +30°C° 0 mm 2 mps 761 mmHg 31%
    Show more